User: anonymous   Login
Location: Unspecified
(0.0000°N, 0.0000°E)
Time: 13:21:52
(UTC+00:00)
Language:

Vela 4A - Orbit

View from above orbital plane
View from above orbital plane
View from above satellite
View from above satellite

Ground track
Ground track

The orbit data is extracted from the following two-line orbital elements,

1 02765U 67040A   17025.08058866 -.00000554  00000-0  00000+0 0  9997
2 02765   8.0022  27.1768 4886423 176.9821 359.1698  0.21447780 39022
Epoch (UTC): 25 January 2017 01:56:02
Eccentricity: 0.4886423
inclination: 8.0022°
perigee height: 53905 km
apogee height: 169117 km
right ascension of ascending node: 27.1768°
argument of perigee: 176.9821°
revolutions per day: 0.21447780
mean anomaly at epoch: 359.1698°
orbit number at epoch: 3902

The dashed part of the orbit path shows where the satellite is in the earth's shadow,  

DLR